Volver al catálogo

CZ-4 DEB

ActivoSSO
NORAD 26158·DEBRIS·🇨🇳 China

Lanzado Oct 14, 1999 desde Taiyuan Satellite Launch Center

Loading…

Próximos Pases (próximas 24 horas)

TLE

ActualizadoSource: Space-Track

Época: Sep 14, 2026, 23:11 UTC

1 26158U 99057AU  26257.96604877  .00001036  00000-0  35516-3 0  9994
2 26158  98.9509 329.5523 0177003  99.2787  78.8862 14.29953083366573

Sigue CZ-4 DEB en tiempo real con AllMySat

Download on the App Store